Regional Weather Roundup
Issued by NWS Goodland, KS

Home | Current Version | Previous Version | Text Only | Print | Product List | Glossary Off
Versions: 1 2 3 4 5 6 7 8 9 10 11 12 13 14 15 16 17 18 19 20 21 22 23 24 25 26 27 28 29 30 31 32 33 34 35 36 37 38 39 40 41 42 43 44 45 46 47 48 49 50

000
ASUS43 KGLD 181159
RWRGLD

GOODLAND FORECAST AREA HOURLY WEATHER ROUNDUP
NATIONAL WEATHER SERVICE GOODLAND KS
600 AM MDT FRI APR 18 2014

...OFFICIAL OBSERVATIONS...

CITY           SKY/WX    TMP DP  RH WIND       PRES   REMARKS
GOODLAND KS    CLEAR     33  31  92 S14       30.08S
HILL CITY KS   CLEAR     37  34  89 CALM      30.17F
IMPERIAL NEB   CLEAR     39  33  79 SE10      30.05R
MCCOOK NEB     CLEAR     38  35  89 S8        30.11F
AKRON CO       CLEAR     40  33  76 SW13      29.98F
BURLINGTON CO  CLEAR     36  33  89 S16       30.06F
LIMON CO       PTCLDY    24  23  96 CALM      30.06S
$$

...UNOFFICIAL OBSERVATIONS...

CITY           SKY/WX    TMP DP  RH WIND       PRES   REMARKS
COLBY KS       CLEAR     37  37 100 S12       30.11S
LENORA KS        N/A     37  32  82 S13         N/A
LEOTI KS         N/A     35  32  88 SW9         N/A
NORTON KS      CLEAR     36  32  87 S7        30.13F
SHARON SPRINGS   N/A     33  30  90 S13         N/A
WAKEENEY KS      N/A     37  33  86 MISG        N/A
KIT CARSON CO    N/A     29  27  91 MISG        N/A
$$



USA.gov is the U.S. government's official web portal to all federal, state and local government web resources and services.